Weather History for Barter Island, AK

Change the Weather History Date:

Tuesday, October 2, 2012

  Actual Average Record
Temperature  
Mean Temperature 34 °F -  
Max Temperature 36 °F 29 °F 55 °F (2003)
Min Temperature 28 °F 21 °F 6 °F (1996)
Degree Days  
Heating Degree Days 32    
Moisture  
Dew Point 30 °F    
Average Humidity 85    
Maximum Humidity 92    
Minimum Humidity 77    
Precipitation  
Precipitation 0.00 in - - ()
Sea Level Pressure  
Sea Level Pressure 30.08 in    
Wind  
Wind Speed 6 mph (SSE)    
Max Wind Speed 10 mph    
Max Gust Speed -    
Visibility 10 miles    
Events      
Averages and records for this station are not official NWS values.
T = Trace of Precipitation, MM = Missing Value Source: NWS Daily Summary

Daily Weather History Graph

Daily Weather History Graph

Search for Another Location

Airport:

Trip Planner

Search our weather history database for the weather conditions in past years. The results will help you decide how hot, cold, wet, or windy it might be!

Date:

Astronomy

Oct. 02, 2012 Rise Set
Actual Time 7:57 AM AKDT 6:47 PM AKDT
Civil Twilight 6:55 AM AKDT 7:48 PM AKDT
Nautical Twilight 5:42 AM AKDT 9:01 PM AKDT
Astronomical Twilight 4:17 AM AKDT 10:24 PM AKDT
Moon 5:40 PM AKDT (10/2) 12:52 PM AKDT (10/2)
Length of Visible Light 12h 52m
Length of Day
10h 50m
Waning Gibbous, 93% of the Moon is Illuminated
Oct 2
Waning Gibbous
Oct 7
Last Quarter
Oct 15
New
Oct 21
First Quarter
Oct 29
Full

Hourly Weather History & Observations

Time (AKDT) Temp. Windchill Dew Point Humidity Pressure Visibility Wind Dir Wind Speed Gust Speed Precip Events Conditions
12:01 AM 30.9 °F 26.2 °F 28.9 °F 92% 30.17 in 10.0 mi SSE 4.6 mph - N/A   Clear
1:01 AM 30.0 °F 24.1 °F 28.0 °F 92% 30.17 in 10.0 mi SSE 5.8 mph - N/A   Clear
2:01 AM 30.0 °F 22.4 °F 28.0 °F 92% 30.16 in 10.0 mi SSE 8.1 mph - N/A   Clear
3:01 AM 32.0 °F 25.6 °F 28.0 °F 85% 30.15 in 10.0 mi South 6.9 mph - N/A   Clear
4:01 AM 30.0 °F 21.7 °F 27.0 °F 88% 30.14 in 10.0 mi SSE 9.2 mph - N/A   Clear
5:01 AM 30.9 °F 23.5 °F 28.0 °F 89% 30.13 in 10.0 mi SSE 8.1 mph - N/A   Clear
6:01 AM 30.9 °F 24.3 °F 27.0 °F 85% 30.12 in 10.0 mi SE 6.9 mph - N/A   Clear
7:01 AM 30.9 °F 24.3 °F 28.0 °F 89% 30.11 in 10.0 mi South 6.9 mph - N/A   Clear
8:01 AM 28.9 °F 23.9 °F 25.0 °F 85% 30.10 in 10.0 mi SSW 4.6 mph - N/A   Clear
9:01 AM 30.9 °F 25.2 °F 27.0 °F 85% 30.09 in 10.0 mi South 5.8 mph - N/A   Clear
10:01 AM 32.0 °F 27.5 °F 27.0 °F 82% 30.08 in 10.0 mi South 4.6 mph - N/A   Clear
11:01 AM 34.0 °F 31.0 °F 28.0 °F 79% 30.08 in 10.0 mi SSE 3.5 mph - N/A   Clear
12:01 PM 34.0 °F - 28.0 °F 79% 30.07 in 10.0 mi Calm Calm - N/A   Clear
1:01 PM 36.0 °F 33.3 °F 32.0 °F 86% 30.06 in 10.0 mi ENE 3.5 mph - N/A   Clear
2:01 PM 37.0 °F - 33.1 °F 86% 30.06 in 10.0 mi Calm Calm - N/A   Clear
3:01 PM 37.0 °F 32.4 °F 34.0 °F 89% 30.04 in 10.0 mi East 5.8 mph - N/A   Clear
4:01 PM 39.0 °F 32.3 °F 35.1 °F 86% 30.04 in 10.0 mi ESE 10.4 mph - N/A   Clear
5:01 PM 39.0 °F 32.3 °F 33.1 °F 79% 30.03 in 10.0 mi ESE 10.4 mph - N/A   Clear
6:01 PM 39.9 °F 34.5 °F 33.1 °F 77% 30.03 in 10.0 mi SE 8.1 mph - N/A   Clear
7:01 PM 37.0 °F 33.3 °F 32.0 °F 82% 30.03 in 10.0 mi SSE 4.6 mph - N/A   Clear
8:01 PM 36.0 °F 31.1 °F 30.0 °F 79% 30.01 in 10.0 mi SSE 5.8 mph - N/A   Clear
9:01 PM 35.1 °F 28.6 °F 30.0 °F 82% 30.01 in 10.0 mi SSE 8.1 mph - N/A   Clear
10:01 PM 35.1 °F 29.3 °F 30.9 °F 85% 30.01 in 10.0 mi South 6.9 mph - N/A   Partly Cloudy
11:01 PM 35.1 °F 28.6 °F 30.9 °F 85% 30.00 in 10.0 mi SE 8.1 mph - N/A   Scattered Clouds